Madison, SD

5:45 PM CST on November 18, 2019 (GMT -0600)
Madison Municipal

Weather History for KMDS - September, 2019

Change the Weather History Date:

Monday, September 9, 2019

  Actual Average Record
Temperature  
Mean Temperature 67 °F -  
Max Temperature 77 °F 75 °F 91 °F (2013)
Min Temperature 57 °F 51 °F 41 °F (2012)
Cooling Degree Days 2    
Growing Degree Days 17 (Base 50)    
Moisture  
Dew Point 66 °F    
Average Humidity 100    
Maximum Humidity 100    
Minimum Humidity 100    
Precipitation  
Precipitation 0.12 in - - ()
Sea Level Pressure  
Sea Level Pressure 29.85 in    
Wind  
Wind Speed 12 mph ()    
Max Wind Speed 22 mph    
Max Gust Speed 30 mph    
Visibility 6.7 miles    
Events Fog , Rain , Thunderstorm    
Averages and records for this station are not official NWS values.
T = Trace of Precipitation, MM = Missing Value Source: Averaged Metar Reports

Daily Weather History Graph

Daily Weather History Graph

Search for Another Location

Airport or City:

Astronomy

Sep. 09, 2019 Rise Set
Actual Time 7:00 AM CDT 7:50 PM CDT
Civil Twilight 6:31 AM CDT 8:19 PM CDT
Nautical Twilight 5:56 AM CDT 8:54 PM CDT
Astronomical Twilight 5:19 AM CDT 9:30 PM CDT
Moon 5:56 PM CDT (9/9) 2:22 AM CDT (9/9)
Length of Visible Light 13h 48m
Length of Day
12h 49m
Waxing Gibbous, 83% of the Moon is Illuminated
Sep 9
Waxing Gibbous
Sep 13
Full
Sep 21
Last Quarter
Sep 28
New
Oct 5
First Quarter

Hourly Weather History & Observations

Time (CDT) Temp. Dew Point Humidity Pressure Visibility Wind Dir Wind Speed Gust Speed Precip Events Conditions
12:00 AM 57.2 °F 57.2 °F 100% 30.03 in 2.0 mi SE 10.4 mph - N/A   Overcast
12:15 AM 57.2 °F 57.2 °F 100% 30.03 in 2.5 mi ESE 9.2 mph - N/A Rain Light Rain
12:35 AM 57.2 °F 57.2 °F 100% 30.02 in 3.0 mi ESE 9.2 mph - N/A   Overcast
12:55 AM 57.2 °F 57.2 °F 100% 30.03 in 1.8 mi SE 8.1 mph - N/A   Overcast
1:00 AM 57.2 °F 57.2 °F 100% 30.02 in 1.2 mi SE 10.4 mph - N/A   Overcast
1:15 AM 57.2 °F 57.2 °F 100% 30.02 in 1.0 mi ESE 5.8 mph - N/A   Overcast
1:35 AM 57.2 °F 57.2 °F 100% 30.03 in 1.2 mi SE 10.4 mph - N/A   Overcast
1:40 AM 59.0 °F 59.0 °F 100% 30.02 in 1.0 mi ESE 9.2 mph - N/A   Overcast
1:55 AM 59.0 °F 59.0 °F 100% 30.02 in 0.8 mi SE 9.2 mph - N/A   Overcast
2:15 AM 59.0 °F 59.0 °F 100% 30.00 in 0.8 mi ESE 9.2 mph - N/A   Overcast
2:20 AM 59.0 °F 59.0 °F 100% 29.99 in 1.2 mi ESE 12.7 mph - N/A   Overcast
2:35 AM 59.0 °F 59.0 °F 100% 29.99 in 1.0 mi ESE 11.5 mph 16.1 mph N/A   Overcast
2:40 AM 59.0 °F 59.0 °F 100% 29.98 in 0.8 mi SE 11.5 mph - N/A   Overcast
2:55 AM 59.0 °F 59.0 °F 100% 29.98 in 0.8 mi SE 12.7 mph 16.1 mph N/A   Overcast
3:00 AM 59.0 °F 59.0 °F 100% 29.99 in 0.8 mi SE 10.4 mph - N/A   Overcast
3:15 AM 59.0 °F 59.0 °F 100% 29.99 in 0.8 mi SE 10.4 mph - N/A   Overcast
3:35 AM 59.0 °F 59.0 °F 100% 29.99 in 0.8 mi SE 11.5 mph - N/A   Overcast
3:55 AM 59.0 °F 59.0 °F 100% 29.98 in 0.8 mi ESE 11.5 mph - N/A   Overcast
4:00 AM 59.0 °F 59.0 °F 100% 29.97 in 0.5 mi ESE 10.4 mph - N/A Fog Fog
4:15 AM 59.0 °F 59.0 °F 100% 29.97 in 0.5 mi ESE 9.2 mph - N/A Fog Fog
4:20 AM 59.0 °F 59.0 °F 100% 29.96 in 0.8 mi ESE 11.5 mph - N/A   Overcast
4:35 AM 59.0 °F 59.0 °F 100% 29.96 in 0.5 mi ESE 12.7 mph 18.4 mph N/A Fog Fog
4:55 AM 59.0 °F 59.0 °F 100% 29.95 in 0.5 mi ESE 11.5 mph - N/A Fog Fog
5:20 AM 59.0 °F 59.0 °F 100% 29.93 in 0.5 mi ESE 12.7 mph - N/A Fog Fog
5:35 AM 59.0 °F 59.0 °F 100% 29.94 in 0.5 mi ESE 12.7 mph 18.4 mph N/A Fog Fog
5:40 AM 59.0 °F 59.0 °F 100% 29.93 in 0.5 mi ESE 11.5 mph 18.4 mph N/A Fog Fog
6:15 AM 59.0 °F 59.0 °F 100% 29.92 in 1.0 mi SE 15.0 mph - N/A   Overcast
6:20 AM 59.0 °F 59.0 °F 100% 29.92 in 1.0 mi ESE 13.8 mph - N/A   Overcast
6:35 AM 59.0 °F 59.0 °F 100% 29.92 in 1.0 mi ESE 12.7 mph 19.6 mph N/A   Overcast
6:55 AM 59.0 °F 59.0 °F 100% 29.91 in 1.5 mi ESE 15.0 mph 18.4 mph N/A   Overcast
7:15 AM 59.0 °F 59.0 °F 100% 29.90 in 1.8 mi ESE 12.7 mph 20.7 mph N/A   Overcast
7:20 AM 59.0 °F 59.0 °F 100% 29.90 in 1.8 mi ESE 12.7 mph - N/A   Overcast
7:35 AM 59.0 °F 59.0 °F 100% 29.89 in 1.5 mi ESE 15.0 mph - N/A Thunderstorm Overcast
7:55 AM 59.0 °F 59.0 °F 100% 29.88 in 1.5 mi ESE 15.0 mph - 0.10 in Rain , Thunderstorm Heavy Rain
8:15 AM 59.0 °F 59.0 °F 100% 29.88 in 3.0 mi SE 17.3 mph 23.0 mph N/A Thunderstorm Overcast
8:20 AM 60.8 °F 60.8 °F 100% 29.88 in 2.5 mi SE 13.8 mph 23.0 mph N/A Thunderstorm Overcast
8:55 AM 60.8 °F 60.8 °F 100% 29.89 in 2.5 mi SE 13.8 mph - 0.01 in Thunderstorm Overcast
9:00 AM 60.8 °F 60.8 °F 100% 29.89 in 1.2 mi SSE 13.8 mph - 0.01 in Rain , Thunderstorm Thunderstorms and Rain
9:15 AM 60.8 °F 60.8 °F 100% 29.88 in 2.5 mi SE 15.0 mph 20.7 mph N/A Rain , Thunderstorm Light Rain
9:20 AM 60.8 °F 60.8 °F 100% 29.88 in 10.0 mi SE 13.8 mph 20.7 mph N/A Rain , Thunderstorm Light Rain
9:35 AM 62.6 °F 62.6 °F 100% 29.88 in 9.0 mi SE 13.8 mph 18.4 mph N/A   Overcast
9:55 AM 62.6 °F 62.6 °F 100% 29.88 in 10.0 mi SE 11.5 mph 19.6 mph N/A   Overcast
10:00 AM 62.6 °F 62.6 °F 100% 29.88 in 10.0 mi SE 10.4 mph - N/A   Overcast
10:35 AM 62.6 °F 62.6 °F 100% 29.85 in 10.0 mi SE 13.8 mph - N/A Rain Light Rain
10:55 AM 62.6 °F 62.6 °F 100% 29.85 in 8.0 mi SSE 12.7 mph 18.4 mph N/A   Overcast
11:00 AM 62.6 °F 62.6 °F 100% 29.85 in 5.0 mi SSE 12.7 mph 17.3 mph N/A   Overcast
11:15 AM 64.4 °F 64.4 °F 100% 29.84 in 2.5 mi SE 9.2 mph - N/A   Overcast
11:20 AM 64.4 °F 64.4 °F 100% 29.84 in 2.0 mi SSE 10.4 mph 16.1 mph N/A   Overcast
11:35 AM 64.4 °F 64.4 °F 100% 29.84 in 3.0 mi SSE 11.5 mph 17.3 mph N/A Rain Light Rain
11:55 AM 64.4 °F 64.4 °F 100% 29.83 in 10.0 mi SSE 13.8 mph - N/A   Overcast
12:00 PM 64.4 °F 64.4 °F 100% 29.83 in 10.0 mi SSE 13.8 mph 20.7 mph N/A   Overcast
12:15 PM 66.2 °F 66.2 °F 100% 29.82 in 10.0 mi SSE 13.8 mph 19.6 mph N/A   Overcast
12:20 PM 66.2 °F 66.2 °F 100% 29.82 in 10.0 mi SE 12.7 mph 19.6 mph N/A   Overcast
12:35 PM 66.2 °F 66.2 °F 100% 29.81 in 10.0 mi SE 12.7 mph 21.9 mph N/A Rain Light Rain
12:55 PM 66.2 °F 66.2 °F 100% 29.81 in 10.0 mi SSE 15.0 mph 21.9 mph N/A   Overcast
1:00 PM 66.2 °F 66.2 °F 100% 29.81 in 10.0 mi SSE 12.7 mph 20.7 mph N/A   Overcast
1:15 PM 66.2 °F 66.2 °F 100% 29.81 in 10.0 mi SSE 15.0 mph 21.9 mph N/A   Overcast
1:20 PM 66.2 °F 66.2 °F 100% 29.81 in 10.0 mi SSE 16.1 mph 21.9 mph N/A   Overcast
1:35 PM 66.2 °F 66.2 °F 100% 29.80 in 10.0 mi South 13.8 mph 21.9 mph N/A Rain Light Rain
1:40 PM 68.0 °F 68.0 °F 100% 29.80 in 10.0 mi SSE 13.8 mph 21.9 mph N/A Rain Light Rain
1:55 PM 68.0 °F 68.0 °F 100% 29.79 in 10.0 mi South 16.1 mph 21.9 mph N/A   Overcast
2:00 PM 68.0 °F 68.0 °F 100% 29.79 in 10.0 mi SSE 15.0 mph 21.9 mph N/A   Overcast
2:15 PM 68.0 °F 68.0 °F 100% 29.78 in 10.0 mi South 18.4 mph 24.2 mph N/A   Overcast
2:20 PM 68.0 °F 68.0 °F 100% 29.78 in 10.0 mi South 15.0 mph 23.0 mph N/A   Mostly Cloudy
2:35 PM 69.8 °F 69.8 °F 100% 29.77 in 10.0 mi SSE 17.3 mph - N/A   Mostly Cloudy
2:55 PM 71.6 °F 71.6 °F 100% 29.76 in 10.0 mi South 20.7 mph 26.5 mph N/A   Mostly Cloudy
3:00 PM 71.6 °F 71.6 °F 100% 29.77 in 10.0 mi South 20.7 mph 26.5 mph N/A   Mostly Cloudy
3:15 PM 73.4 °F 73.4 °F 100% 29.76 in 10.0 mi South 17.3 mph 25.3 mph N/A   Mostly Cloudy
3:20 PM 73.4 °F 73.4 °F 100% 29.76 in 10.0 mi South 17.3 mph 24.2 mph N/A   Mostly Cloudy
3:35 PM 73.4 °F 73.4 °F 100% 29.75 in 10.0 mi South 20.7 mph 27.6 mph N/A   Mostly Cloudy
3:40 PM 73.4 °F 73.4 °F 100% 29.75 in 10.0 mi South 19.6 mph 27.6 mph N/A   Mostly Cloudy
3:55 PM 75.2 °F 75.2 °F 100% 29.75 in 10.0 mi South 20.7 mph 28.8 mph N/A   Mostly Cloudy
4:15 PM 75.2 °F 75.2 °F 100% 29.75 in 10.0 mi SSW 17.3 mph 25.3 mph N/A   Mostly Cloudy
4:35 PM 75.2 °F 75.2 °F 100% 29.75 in 10.0 mi SSW 21.9 mph 26.5 mph N/A   Mostly Cloudy
4:40 PM 75.2 °F 75.2 °F 100% 29.75 in 10.0 mi SSW 20.7 mph 29.9 mph N/A   Mostly Cloudy
4:55 PM 75.2 °F 75.2 °F 100% 29.75 in 10.0 mi South 20.7 mph 27.6 mph N/A   Mostly Cloudy
5:15 PM 75.2 °F 75.2 °F 100% 29.74 in 10.0 mi South 18.4 mph 23.0 mph N/A   Mostly Cloudy
5:20 PM 75.2 °F 75.2 °F 100% 29.74 in 10.0 mi SSW 12.7 mph - N/A   Mostly Cloudy
5:35 PM 77.0 °F 77.0 °F 100% 29.74 in 10.0 mi South 17.3 mph 24.2 mph N/A   Mostly Cloudy
5:40 PM 75.2 °F 75.2 °F 100% 29.74 in 10.0 mi South 16.1 mph 26.5 mph N/A   Mostly Cloudy
5:55 PM 75.2 °F 75.2 °F 100% 29.74 in 10.0 mi South 15.0 mph 23.0 mph N/A   Scattered Clouds
6:15 PM 75.2 °F 75.2 °F 100% 29.74 in 10.0 mi South 13.8 mph - N/A   Clear
6:20 PM 75.2 °F 75.2 °F 100% 29.74 in 10.0 mi South 15.0 mph - N/A   Clear
6:35 PM 75.2 °F 75.2 °F 100% 29.75 in 10.0 mi South 12.7 mph 19.6 mph N/A   Clear
6:55 PM 73.4 °F 73.4 °F 100% 29.75 in 10.0 mi South 10.4 mph - N/A   Clear
7:15 PM 73.4 °F 73.4 °F 100% 29.76 in 10.0 mi South 8.1 mph - N/A   Scattered Clouds
7:20 PM 73.4 °F 73.4 °F 100% 29.76 in 10.0 mi South 9.2 mph - N/A   Mostly Cloudy
7:35 PM 71.6 °F 71.6 °F 100% 29.76 in 10.0 mi South 9.2 mph - N/A   Scattered Clouds
7:40 PM 71.6 °F 71.6 °F 100% 29.76 in 10.0 mi South 9.2 mph - N/A   Scattered Clouds
7:55 PM 71.6 °F 71.6 °F 100% 29.76 in 10.0 mi South 8.1 mph - N/A   Clear
8:00 PM 71.6 °F 71.6 °F 100% 29.76 in 10.0 mi South 9.2 mph - N/A   Clear
8:15 PM 71.6 °F 71.6 °F 100% 29.76 in 10.0 mi South 10.4 mph - N/A   Clear
8:20 PM 71.6 °F 71.6 °F 100% 29.76 in 10.0 mi South 10.4 mph - N/A   Clear
8:35 PM 71.6 °F 71.6 °F 100% 29.76 in 10.0 mi South 10.4 mph - N/A   Clear
8:55 PM 71.6 °F 71.6 °F 100% 29.77 in 10.0 mi South 13.8 mph - N/A   Clear
9:00 PM 71.6 °F 71.6 °F 100% 29.77 in 10.0 mi South 13.8 mph - N/A   Clear
9:15 PM 71.6 °F 71.6 °F 100% 29.77 in 10.0 mi South 13.8 mph - N/A   Clear
9:20 PM 71.6 °F 71.6 °F 100% 29.77 in 10.0 mi South 12.7 mph - N/A   Clear
9:35 PM 71.6 °F 71.6 °F 100% 29.77 in 10.0 mi South 13.8 mph - N/A   Clear
9:40 PM 71.6 °F 71.6 °F 100% 29.77 in 10.0 mi South 13.8 mph - N/A   Clear
9:55 PM 71.6 °F 71.6 °F 100% 29.78 in 10.0 mi South 13.8 mph 20.7 mph N/A   Clear
10:00 PM 71.6 °F 71.6 °F 100% 29.78 in 10.0 mi SSW 15.0 mph 20.7 mph N/A   Clear
10:15 PM 71.6 °F 71.6 °F 100% 29.78 in 10.0 mi SSW 15.0 mph - N/A   Clear
10:35 PM 69.8 °F 69.8 °F 100% 29.78 in 10.0 mi SSW 15.0 mph 20.7 mph N/A   Clear
10:55 PM 69.8 °F 69.8 °F 100% 29.79 in 10.0 mi SSW 15.0 mph 19.6 mph N/A   Clear
11:00 PM 69.8 °F 69.8 °F 100% 29.79 in 10.0 mi SSW 15.0 mph - N/A   Clear
11:15 PM 69.8 °F 69.8 °F 100% 29.79 in 10.0 mi SSW 12.7 mph - N/A   Clear
11:20 PM 69.8 °F 69.8 °F 100% 29.80 in 10.0 mi SSW 15.0 mph 18.4 mph N/A   Clear
11:35 PM 69.8 °F 69.8 °F 100% 29.80 in 10.0 mi SSW 13.8 mph - N/A   Clear
11:40 PM 69.8 °F 69.8 °F 100% 29.80 in 10.0 mi SW 13.8 mph - N/A   Clear
11:55 PM 68.0 °F 68.0 °F 100% 29.82 in 10.0 mi WSW 12.7 mph 16.1 mph N/A   Clear